Bamako-Sénou International Airport

Airport
ICAO code: 
GABS
IATA Code: 
BKO
Summary
ICAO Region: 
AFI
Territory: 
Location: 
Bamako, Bamako
Serving: 
Bamako
Elevation: 
1247 ft
Coordinates: 
Aerial View: 
12° 32' 27.334" N, 7° 56' 52.624" W
Metar
Observation
GABS 251200Z 15008KT 100V200 9999 FEW030 32/19 Q1015 NOSIG
Station
Bamako / Senou
Date/Time
2022-05-25 12:00:00
Wind direction
150°
Wind speed
08 kts
Lowest cloud amount
few clouds
Temperature
32°C
Dew point
19°C
Humidity
46%
QNH
1015 hPa
Weather condition
n/a

Bamako's Modibo Keita International Airport (formerly Bamako–Sénou International Airport) is Mali's main airport located approximately 15 km south of downtown Bamako, the capital of Mali in West Africa.

Climatology

Tropical savannah climate (Köppen climate classification Aw)

Runways

Designator Length Width Surface Rops
6/24 2706 45 ASP Yes/Yes
Airport map: 
Aerial View: 

SKYbrary Partners:

Safety knowledge contributed by: